Date,TemperatureHighF,TemperatureAvgF,TemperatureLowF,DewpointHighF,DewpointAvgF,DewpointLowF,HumidityHigh,HumidityAvg,HumidityLow,PressureMaxIn,PressureMinIn,WindSpeedMaxMPH,WindSpeedAvgMPH,GustSpeedMaxMPH,PrecipitationSumIn
2013-6-26,70.5,69.9,69.6,70.0,69.0,68.5,98,97,96,29.93,29.92,1,0,2,0.47
2013-6-27,90.0,69.9,59.9,69.0,63.0,57.0,99,82,46,29.91,29.81,10,2,10,0.54
2013-6-28,83.3,67.8,58.5,66.9,62.1,57.6,99,84,49,29.87,29.70,115,1,115,0.24
2013-6-29,82.2,65.8,61.2,64.5,60.5,58.1,97,84,65,29.93,29.73,7,2,7,0.06
2013-6-30,80.1,68.9,60.3,60.4,56.2,46.9,92,66,38,30.15,28.99,11,2,11,0.00
2013-7-1,80.1,66.3,53.6,54.2,50.2,46.4,84,59,37,30.26,29.74,16,3,16,0.00
2013-7-2,74.1,63.6,55.4,57.0,50.5,40.0,90,64,45,30.27,30.21,9,2,9,0.08
2013-7-3,61.0,59.0,57.4,51.8,50.1,48.8,81,72,65,30.24,30.22,3,1,3,0.00
2013-7-5,84.9,79.8,72.9,63.4,61.8,60.4,67,55,46,30.22,30.17,6,2,6,0.00
2013-7-6,86.5,76.7,64.4,67.8,63.7,61.0,90,66,45,30.24,30.12,7,1,7,0.00
2013-7-7,84.7,76.6,70.0,71.0,66.6,63.4,84,72,53,30.16,30.08,8,2,8,0.00
2013-7-8,77.9,73.7,70.3,72.0,68.7,65.7,93,85,74,30.16,30.09,8,2,8,0.44
2013-7-9,84.9,73.8,68.4,73.1,68.3,64.9,94,84,57,30.14,29.99,4,1,6,0.13
2013-7-10,84.4,75.2,62.2,71.7,64.0,53.6,93,70,46,30.12,29.91,12,3,12,0.00
2013-7-11,79.5,68.7,56.7,59.3,55.5,49.5,94,66,36,30.25,30.12,9,2,9,0.00
2013-7-12,79.5,68.4,54.0,59.5,56.3,51.6,94,68,47,30.34,30.25,7,1,7,0.00
2013-7-13,83.8,72.9,59.0,62.3,58.8,55.6,95,65,40,30.37,30.30,6,1,6,0.00
2013-7-14,88.9,76.6,62.6,68.4,63.6,58.6,88,66,45,30.42,30.36,6,1,6,0.00
2013-7-15,93.0,81.9,70.2,70.9,68.7,66.5,89,66,46,30.45,30.38,4,1,4,0.00
2013-7-16,94.8,84.2,73.0,72.8,70.7,69.2,88,66,46,30.45,30.38,8,2,8,0.00
2013-7-17,95.7,85.1,74.7,74.0,70.4,68.0,85,63,45,30.42,30.29,7,2,7,0.00
2013-7-18,95.9,85.2,73.6,73.4,69.5,65.3,87,62,42,30.31,30.06,11,2,11,0.00
2013-7-19,93.2,84.4,72.9,75.0,69.6,61.3,86,62,46,30.06,29.84,25,5,25,0.09
2013-7-20,85.3,73.7,63.7,65.7,60.3,49.1,89,65,38,30.13,29.89,10,2,10,0.04
2013-7-21,78.8,68.5,55.2,56.7,51.3,47.5,78,56,34,30.18,30.09,8,2,8,0.00
2013-7-22,84.2,73.1,61.7,66.3,62.3,55.8,93,71,50,30.12,29.88,7,2,7,0.19
2013-7-23,77.0,70.0,58.6,68.0,58.7,46.1,85,68,49,30.08,29.82,17,4,17,0.00
2013-7-24,70.3,61.2,48.9,49.9,47.1,44.6,85,62,44,30.20,30.08,9,2,9,0.00
2013-7-25,78.6,65.9,49.5,54.7,49.3,45.5,91,59,34,30.25,30.18,7,1,7,0.00
2013-7-26,75.7,65.5,59.7,61.9,57.2,52.1,94,75,56,30.21,30.03,7,2,7,0.30
2013-7-27,73.2,64.3,55.0,63.9,57.8,48.3,94,80,61,30.16,29.91,9,2,9,0.37
2013-7-28,67.1,58.1,50.5,53.8,50.3,46.4,92,76,54,30.08,29.93,8,2,8,0.14
2013-7-29,71.2,62.0,54.7,56.0,54.0,52.9,94,77,56,30.33,30.06,7,2,7,0.01
2013-7-30,77.0,65.2,50.7,57.9,53.7,49.1,95,69,45,30.37,30.26,8,1,8,0.00
2013-7-31,68.2,63.9,60.6,64.0,60.9,56.5,95,90,80,30.26,30.04,4,1,4,0.51
2013-8-1,78.4,68.9,60.4,62.8,57.2,51.4,95,70,42,30.07,30.03,7,1,7,0.00
2013-8-2,77.0,67.1,55.4,62.1,57.5,52.6,93,72,55,30.07,29.96,15,2,15,0.00
2013-8-3,79.0,67.1,54.7,57.3,53.7,51.5,93,65,42,30.24,30.06,10,2,10,0.00
2013-8-4,72.3,64.8,54.0,54.5,51.5,49.0,86,64,44,30.33,30.23,9,2,9,0.00
2013-8-5,72.7,61.7,52.3,55.3,52.5,48.7,93,73,45,30.25,30.08,4,1,4,0.00
2013-8-6,78.1,69.1,61.7,65.4,60.9,54.6,86,76,63,30.08,30.00,8,2,8,0.00
2013-8-7,82.8,72.6,61.7,66.4,62.6,58.3,94,73,51,30.10,29.87,8,2,8,0.70
2013-8-8,75.4,67.0,55.4,58.3,53.5,49.1,91,65,41,30.20,30.10,10,2,10,0.00
2013-8-9,80.4,68.4,54.1,59.9,55.6,51.6,94,66,38,30.18,30.08,8,2,8,0.00
2013-8-10,76.3,65.8,52.9,55.5,52.3,47.7,89,64,44,30.30,30.18,6,1,6,0.00
2013-8-11,79.0,66.6,55.9,57.5,54.9,52.1,88,68,44,30.27,30.19,4,1,4,0.00
2013-8-12,79.3,70.8,63.9,63.0,59.2,54.4,83,68,48,30.21,29.99,10,2,10,0.00
2013-8-13,67.8,60.7,50.9,55.2,46.1,40.5,81,60,39,30.23,30.05,17,5,17,0.00
2013-8-14,71.6,60.2,46.9,51.6,46.7,42.8,90,63,42,30.31,30.23,8,2,8,0.00
2013-8-15,77.0,62.3,45.9,55.9,48.1,42.7,91,63,35,30.28,30.19,7,1,7,0.00
2013-8-16,78.8,66.6,50.0,54.0,50.2,46.5,89,59,37,30.34,30.25,8,1,8,0.00
2013-8-17,83.7,68.5,51.8,56.6,51.6,47.7,89,59,32,30.41,30.33,7,1,7,0.00
2013-8-18,83.5,69.2,52.9,59.3,52.4,48.7,90,59,33,30.38,30.25,6,1,6,0.00
2013-8-19,83.1,70.4,54.7,58.8,55.5,51.7,90,62,39,30.27,30.17,9,1,9,0.00
2013-8-20,86.7,74.2,60.8,64.8,59.5,55.5,85,62,41,30.26,30.19,9,2,9,0.00
2013-8-21,88.7,78.1,67.6,65.5,62.6,59.6,81,61,43,30.24,30.09,11,3,11,0.00
2013-8-22,81.0,74.2,64.0,66.4,61.8,50.8,90,66,53,30.25,30.05,9,2,9,0.01
2013-8-23,79.7,67.2,52.2,57.3,52.1,44.8,86,61,31,30.35,30.25,8,2,8,0.00
2013-8-24,83.5,69.6,53.2,59.3,53.6,49.1,93,61,31,30.45,30.35,7,1,7,0.00
2013-8-25,89.1,75.7,62.2,65.4,59.9,54.3,77,59,44,30.41,30.24,12,3,12,0.00
2013-8-26,86.7,77.3,72.3,71.5,66.1,63.1,86,69,52,30.26,30.12,8,3,8,0.08
2013-8-27,78.6,72.8,66.0,73.1,68.0,53.9,94,85,56,30.34,29.96,13,1,13,1.85
2013-8-28,140.0,73.3,65.7,99.9,66.2,54.2,99,80,52,30.35,29.92,9,2,9,1.94
2013-8-29,85.3,74.2,63.0,68.1,63.4,60.3,93,72,47,30.07,29.96,4,1,4,0.00
2013-8-30,87.6,76.4,68.4,69.8,65.5,61.3,84,70,50,29.97,29.69,11,3,11,0.00
2013-8-31,77.2,70.7,63.3,62.9,60.9,58.4,85,72,57,29.85,29.76,10,2,10,0.00
2013-9-1,78.1,67.5,59.2,65.7,61.3,56.3,94,81,62,29.84,29.67,5,1,5,0.00
2013-9-2,69.8,63.7,58.1,64.4,53.9,48.0,86,71,57,29.90,29.71,14,2,14,0.00
2013-9-3,74.8,63.6,53.1,53.0,50.4,48.0,85,64,42,29.98,29.88,8,1,8,0.00
2013-9-4,81.0,66.5,54.9,62.3,56.1,49.9,89,71,52,30.10,29.94,10,2,10,0.00
2013-9-5,68.2,57.8,46.9,50.6,44.8,39.9,86,64,38,30.24,30.09,11,2,11,0.00
2013-9-6,76.1,61.2,44.6,53.9,49.0,41.9,91,67,44,30.21,29.98,7,2,7,0.00
2013-9-7,77.4,69.6,65.1,69.7,61.0,53.1,87,74,65,29.99,29.84,6,2,6,0.21
2013-9-8,70.9,65.5,55.0,64.1,54.2,48.0,87,68,48,30.09,29.92,14,3,14,0.01
2013-9-9,83.3,66.0,54.1,59.7,51.8,47.6,84,64,31,30.37,29.94,5,1,5,3.76
2013-9-10,91.9,82.2,65.7,68.8,65.1,54.5,82,58,40,30.34,29.91,12,4,12,0.00
2013-9-11,83.8,75.4,66.9,65.9,62.2,60.6,84,64,48,30.11,30.03,8,2,8,0.00
2013-9-12,74.7,65.5,55.6,62.1,54.0,42.3,88,68,48,30.12,29.99,19,4,19,0.00
2013-9-13,60.3,52.4,45.5,43.4,39.3,31.0,85,63,34,30.23,30.11,11,3,11,0.00
2013-9-14,67.6,53.5,37.6,48.5,40.2,32.3,93,65,27,30.90,30.13,8,1,8,0.00
2013-9-15,60.4,56.0,52.3,53.7,48.7,43.1,92,77,61,30.22,30.11,4,1,4,0.17
2013-9-16,58.1,51.6,43.5,50.6,43.5,38.8,92,75,51,30.47,30.22,11,3,11,0.00
2013-9-17,65.7,50.4,35.2,46.1,40.3,32.1,93,71,39,30.49,30.28,7,1,7,0.00
2013-9-18,76.8,59.2,42.1,54.3,47.7,39.9,92,69,39,30.28,30.08,8,1,8,0.00
2013-9-19,77.0,67.1,59.9,66.8,59.4,51.9,90,77,66,30.09,29.93,7,2,7,0.19
2013-9-20,72.7,68.5,63.7,66.3,62.5,58.6,90,81,70,29.95,29.81,10,2,10,0.08
2013-9-21,64.4,58.3,51.3,58.8,49.1,41.2,87,72,52,29.99,29.79,11,2,11,0.02
2013-9-22,52.7,48.1,44.8,42.9,40.5,38.7,83,75,62,30.14,29.99,10,2,10,0.00
2013-9-23,83.3,69.5,53.2,59.1,53.6,49.5,93,61,31,30.11,30.01,5,1,5,0.00
2013-9-24,69.4,52.9,37.8,55.2,43.7,34.8,90,73,52,30.05,29.80,6,1,6,0.00
2013-9-25,68.4,54.3,42.3,51.9,45.4,38.6,87,73,49,29.82,29.77,8,1,8,0.00
2013-9-26,72.0,57.6,46.2,55.1,47.2,42.6,89,71,37,29.93,29.81,6,1,6,0.00
2013-9-27,75.6,59.1,43.7,52.5,48.4,41.5,92,71,42,30.02,29.93,7,1,7,0.00
2013-9-28,77.9,62.2,47.7,56.8,50.9,45.2,92,70,39,29.97,28.23,10,2,10,0.00
2013-9-29,67.5,61.4,51.6,56.7,49.8,44.0,88,67,44,29.80,29.68,10,2,10,0.27
2013-9-30,68.2,57.8,51.1,53.6,49.4,44.5,92,75,49,29.81,29.70,7,1,7,0.00
2013-10-1,72.0,61.7,49.8,59.9,54.6,46.2,88,78,65,29.72,29.66,11,3,11,0.00
2013-10-2,73.6,62.1,50.5,58.8,45.9,30.4,88,61,21,29.89,29.69,7,1,7,0.00
2013-10-3,79.3,60.4,45.5,64.7,53.8,41.3,91,80,55,29.86,29.68,9,1,9,0.41
2013-10-4,73.0,65.8,59.4,64.8,61.9,56.4,93,88,72,29.86,29.66,9,1,9,0.52
2013-10-5,66.2,61.6,57.9,63.7,58.7,55.3,93,90,85,29.85,29.61,8,2,8,0.77
2013-10-6,68.0,61.0,50.2,64.1,57.7,47.4,92,89,83,29.61,29.46,5,2,5,0.09
2013-10-7,70.9,52.0,47.1,55.2,45.8,42.5,91,80,55,30.28,29.44,8,2,8,1.20
2013-10-8,67.8,53.6,39.0,48.0,43.3,36.8,92,71,45,31.00,30.09,8,2,8,0.00
2013-10-9,69.8,54.9,41.7,50.2,44.0,39.0,92,70,40,30.32,30.22,5,1,5,0.00
2013-10-10,68.9,52.5,39.4,50.6,43.7,37.5,93,75,42,30.25,30.14,4,1,4,0.00
2013-10-11,69.8,53.5,41.0,49.9,44.0,39.1,94,74,37,30.18,30.08,6,1,6,0.00
2013-10-12,77.7,58.9,42.4,56.8,48.7,40.6,93,73,39,30.10,30.00,6,1,7,0.01
2013-10-13,61.9,53.9,45.0,57.0,45.2,41.3,88,73,52,30.38,30.09,10,1,10,0.00
2013-10-14,58.3,48.2,38.5,43.2,39.0,36.1,91,73,45,30.44,30.28,8,1,8,0.00
2013-10-15,64.2,50.0,36.9,54.8,45.0,33.4,92,84,65,30.29,29.78,8,2,8,0.25
2013-10-16,58.3,51.4,45.5,54.8,47.2,42.3,90,86,80,29.89,29.77,8,2,8,0.01
2013-10-17,51.1,46.9,40.1,46.2,43.4,37.8,92,88,79,29.90,29.75,7,1,7,0.44
2013-10-18,58.8,46.9,38.5,46.1,40.2,36.6,94,79,53,29.88,29.80,11,2,11,0.01
2013-10-19,52.0,44.8,37.9,40.7,37.3,31.0,88,76,46,29.87,29.72,7,2,7,0.04
2013-10-20,53.2,44.8,37.0,44.4,37.7,33.0,91,77,51,29.88,29.73,8,1,8,0.08
2013-10-21,50.7,46.6,37.4,46.5,38.3,24.8,87,73,60,29.84,29.73,10,3,10,0.01
2013-10-22,48.4,39.5,33.1,32.8,28.1,22.1,78,64,49,29.88,29.82,11,2,11,0.00
2013-10-23,45.0,36.4,31.1,33.1,28.3,23.1,86,73,42,29.92,29.84,10,1,10,0.00
2013-10-24,44.6,36.5,30.0,32.3,28.1,25.5,85,72,54,30.15,29.91,8,2,8,0.00
2013-10-25,44.8,38.0,29.8,32.2,27.5,23.5,86,67,43,30.29,29.95,12,2,12,0.00
2013-10-26,48.9,42.9,35.4,38.5,33.8,27.8,83,70,55,29.99,29.71,16,4,16,0.14
2013-10-27,50.4,41.0,32.0,33.2,29.5,24.7,77,64,45,30.02,29.92,11,2,11,0.00
2013-10-28,43.3,40.3,35.8,35.5,31.1,26.2,81,70,57,30.44,30.00,13,3,13,0.00
2013-10-29,41.2,35.3,29.1,35.4,27.9,21.6,85,74,63,30.47,30.24,8,1,8,0.01
2013-10-30,57.2,42.9,28.2,46.2,36.1,23.5,89,77,63,30.24,29.90,4,1,4,0.00
2013-10-31,59.9,56.6,52.3,56.0,52.6,44.6,89,86,72,29.90,29.06,8,2,8,0.70
2013-11-1,58.6,47.5,44.1,54.8,42.7,39.9,87,83,75,29.65,29.07,16,4,16,0.15
2013-11-2,83.3,68.6,43.5,59.1,52.3,39.9,93,61,31,30.13,29.65,5,1,5,2.14
2013-11-3,66.0,38.2,29.1,54.8,28.9,23.8,83,69,54,30.20,29.92,8,1,8,0.00
2013-11-4,48.7,39.9,31.3,31.3,26.9,24.6,80,61,40,30.21,30.00,12,3,12,0.00
2013-11-5,59.7,50.7,43.0,44.8,40.1,30.9,75,67,55,30.08,29.86,8,2,8,0.00
2013-11-6,55.6,49.2,37.6,51.2,43.5,32.6,86,81,67,29.85,29.46,14,4,14,0.30
2013-11-7,43.9,36.9,33.6,33.0,25.2,20.8,84,63,44,29.91,29.77,9,3,9,0.01
2013-11-8,44.4,36.4,29.5,27.9,23.4,20.7,75,60,42,30.02,29.88,8,2,8,0.00
2013-11-9,49.6,43.7,35.8,38.0,31.7,24.4,69,63,52,29.88,29.51,17,5,17,0.00
2013-11-10,46.6,40.3,33.4,31.2,27.1,21.4,68,59,46,30.02,29.65,14,4,14,0.00
2013-11-11,79.9,44.3,28.4,55.2,33.8,16.3,84,68,37,30.00,29.79,14,3,14,1.78
2013-11-12,65.8,26.1,20.5,54.6,14.1,9.8,75,61,43,30.10,29.85,11,3,11,0.01
2013-11-13,41.9,30.5,20.1,22.7,15.0,9.6,69,54,27,30.05,29.60,17,6,17,0.00
2013-11-14,48.4,39.7,31.6,29.8,24.8,21.0,65,55,47,29.61,29.47,15,6,15,0.00
2013-11-15,48.4,41.4,33.6,32.6,28.3,23.5,77,60,52,29.57,29.47,10,3,10,0.00
2013-11-16,54.3,44.1,29.7,47.8,36.5,23.4,85,75,66,29.59,29.23,17,4,17,0.20
2013-11-17,61.3,54.9,43.2,55.4,50.0,13.1,87,83,74,29.23,28.67,26,7,26,0.58
2013-11-18,43.5,36.9,33.4,39.0,25.4,19.4,84,63,55,29.69,28.96,24,8,24,0.00
2013-11-19,41.4,32.5,25.9,27.9,19.2,15.0,75,58,45,29.94,29.69,12,1,12,0.00
2013-11-20,43.2,33.0,24.1,31.6,23.2,17.6,78,67,51,29.96,29.77,13,2,13,0.00
2013-11-21,47.3,40.6,34.2,40.8,34.5,24.0,90,79,64,29.81,29.72,5,1,5,0.08
2013-11-22,41.7,34.7,24.1,38.3,27.6,16.6,89,75,59,29.94,29.70,14,3,16,0.01
2013-11-23,26.8,21.7,14.5,17.6,9.4,1.0,75,59,44,30.07,29.81,21,5,21,0.00
2013-11-24,23.0,18.0,12.9,8.6,4.4,1.2,66,55,44,30.13,29.85,12,4,12,0.00
2013-11-25,29.8,25.5,19.6,25.9,14.3,2.9,85,63,44,29.85,29.52,16,6,16,0.00
2013-11-26,32.5,29.5,24.1,26.5,23.5,14.2,85,78,64,29.57,29.48,13,4,13,0.00
2013-11-27,27.3,20.7,15.8,14.4,8.0,4.9,70,58,41,29.75,29.55,17,4,17,0.00
2013-11-28,25.3,20.5,15.4,19.2,13.7,6.8,79,75,64,29.97,29.75,8,1,8,0.00
2013-11-29,27.0,20.9,18.0,20.1,14.7,11.1,79,76,72,30.20,29.97,4,1,4,0.00
2013-11-30,42.3,32.4,19.0,30.7,22.0,12.2,79,66,55,30.06,29.59,9,3,10,0.06
2013-12-1,38.8,35.2,31.5,31.8,27.5,24.7,83,73,66,29.64,29.57,8,1,8,0.00
2013-12-2,39.0,33.3,27.9,30.3,24.6,18.4,84,71,53,29.58,29.45,5,1,5,0.00
2013-12-3,33.3,30.5,25.2,29.5,26.2,19.4,86,84,74,29.48,29.41,13,3,13,0.47
2013-12-4,52.7,38.3,32.4,50.4,35.6,28.8,94,90,86,29.44,29.09,10,2,10,0.26
2013-12-5,52.3,36.2,23.9,49.6,24.6,9.7,91,63,44,29.68,29.08,19,7,19,0.01
2013-12-6,23.7,19.9,16.2,10.2,6.0,1.9,61,54,48,29.93,29.68,10,3,10,0.00
2013-12-7,20.1,16.1,10.2,4.4,0.2,-3.4,58,49,41,30.15,29.94,11,4,11,0.00
2013-12-8,26.8,16.7,8.6,22.1,7.8,-3.8,83,68,55,30.12,29.54,12,2,12,0.00
2013-12-9,27.9,22.0,11.5,23.2,13.7,-3.5,84,71,45,29.62,29.37,20,5,20,0.00
2013-12-10,18.1,12.5,5.2,7.0,0.7,-6.3,69,58,49,29.68,29.41,18,5,18,0.00
2013-12-11,18.9,12.1,3.4,4.3,-2.0,-8.7,66,53,34,29.95,29.68,12,4,12,0.00
2013-12-12,19.2,11.2,4.5,8.7,0.3,-5.9,66,60,55,29.95,29.65,13,4,13,0.00
2013-12-13,26.1,20.8,13.5,15.6,10.9,4.6,74,65,53,29.88,29.63,11,3,11,0.00
2013-12-14,20.3,16.4,10.0,15.2,9.7,-0.1,80,74,63,29.88,29.41,15,3,15,0.00
2013-12-15,22.3,16.3,10.6,14.8,6.8,-1.4,78,66,52,29.52,29.33,14,4,14,0.00
2013-12-16,19.2,11.1,0.1,11.7,0.1,-10.2,73,61,43,29.73,29.52,9,2,9,0.00
2013-12-17,29.8,21.1,12.4,22.9,13.4,4.2,79,72,65,29.55,29.34,12,2,12,0.00
2013-12-18,27.9,24.0,19.0,17.6,12.9,4.1,76,62,50,29.62,29.36,12,4,12,0.00
2013-12-19,36.5,26.4,15.6,27.5,19.1,4.0,86,74,52,29.56,29.33,8,1,8,0.00
2013-12-20,31.6,28.4,25.5,28.3,24.2,20.8,88,84,81,29.48,29.33,10,2,10,0.00
2013-12-21,70.7,31.6,25.9,55.2,26.4,21.0,88,82,55,30.46,29.33,8,1,8,0.00
2013-12-22,66.2,26.5,21.0,54.9,21.3,15.5,87,80,67,30.46,29.81,11,2,11,0.02
2013-12-23,27.5,20.7,13.6,20.6,12.9,5.4,82,72,54,30.46,30.15,4,1,4,0.00
2013-12-24,18.9,11.7,5.0,6.3,1.2,-3.4,74,62,44,30.66,30.46,5,1,5,0.00
2013-12-25,22.1,17.2,5.4,16.3,9.7,-3.3,78,72,67,30.61,30.20,10,3,10,0.00
2013-12-26,25.0,22.2,19.9,16.8,14.1,9.2,79,71,54,30.38,30.15,9,2,9,0.00
2013-12-27,35.4,26.9,21.0,27.0,19.8,13.6,84,74,66,30.44,30.12,11,3,11,0.00
2013-12-28,43.7,36.4,27.5,32.2,28.0,21.6,84,72,62,30.22,29.97,11,3,11,0.57
2013-12-29,39.7,28.5,14.9,29.3,17.8,0.1,72,64,51,30.20,29.88,14,4,14,0.04
2013-12-30,18.9,13.2,7.9,4.1,-2.3,-8.5,65,49,41,30.41,30.20,8,2,8,0.00
2013-12-31,16.5,11.4,7.5,2.6,-1.9,-5.4,66,55,44,30.48,30.19,14,4,14,0.00
2014-1-1,16.3,9.4,0.9,5.7,-3.1,-11.2,65,56,49,30.58,30.47,8,2,8,0.00
2014-1-2,11.8,7.6,-1.7,-0.6,-5.4,-15.3,61,54,46,30.50,30.37,11,3,11,0.00